Location: Arbon
(43.0005°N, 0.7472°E)
Time: 19:43:49
(UTC+00:00)

Courier 1B Rocket - Pass Details

Date: 01 December 2020
Orbit: 920 x 1202 km, 28.2° (Epoch: 22 January)

Event Time Altitude Azimuth Distance (km) Brightness Sun altitude
Rises 03:41:04 0° 212° (SSW) 4,040 - -37.3°
Reaches altitude 10° 03:45:14 10° 192° (SSW) 3,108 - -36.6°
Exits shadow 03:47:30 14° 175° (S) 2,807 7.4 -36.1°
Maximum altitude 03:49:27 16° 158° (SSE) 2,722 7.4 -35.8°
Drops below altitude 10° 03:53:41 10° 125° (SE) 3,127 8.2 -35.0°
Sets 03:57:54 0° 105° (ESE) 4,079 9.2 -34.2°
